{"data":{"norad_id":53239,"epoch":"2026-09-20T00:37:39.425664Z","epoch_age_seconds":59039,"freshness":"FRESH","line1":"1 53239U 22085A   26263.02615076  .00015971  00000+0  19476-3 0  9997","line2":"2 53239  41.4678 106.1628 0002596 292.3466  67.7098 15.60120079288233","mean_motion":15.60120079,"eccentricity":0.0002596,"inclination_deg":41.4678,"raan_deg":106.1628,"arg_perigee_deg":292.3466,"mean_anomaly_deg":67.7098,"bstar":0.00019476,"rev_number":28823,"period_min":92.300587588297,"perigee_km":385.55360079716,"apogee_km":389.06622083326,"semimajor_km":6765.4469108152,"source":"CELESTRAK","updated_at":"2026-09-20T09:00:28.693653Z"}}